DW1597 Weather Reports


time (UTC)temp
C
wind
direction
speed
KPH
gust
KPH
rain 1hr
cm
rain 24hr
cm
rain mn
cm
humidity
%
barometer
mb
20211017151650 2 286 0.0 0.0 0.00 0.00 0.00 82 1004.2
20211017150129 2 286 0.0 0.0 0.00 0.00 0.00 83 1004.2
20211017144647 2 286 0.0 0.0 0.00 0.00 0.00 81 1004.2
20211017143134 2 286 1.6 4.8 0.00 0.00 0.00 80 1004.1
20211017141622 2 286 0.0 0.0 0.00 0.00 0.00 80 1004.1
20211017140059 2 286 0.0 4.8 0.00 0.00 0.00 79 1004.2
20211017134604 2 283 8.0 14.5 0.00 0.00 0.00 80 1004.0
20211017133114 2 240 0.0 4.8 0.00 0.00 0.00 80 1004.1
20211017131640 2 240 0.0 3.2 0.00 0.00 0.00 82 1004.2
20211017130115 2 240 0.0 4.8 0.00 0.00 0.00 82 1004.3
20211017124548 2 240 0.0 3.2 0.00 0.00 0.00 81 1004.5
20211017123118 2 240 0.0 1.6 0.00 0.00 0.00 80 1004.8
20211017121551 2 240 0.0 1.6 0.00 0.00 0.00 81 1004.9
20211017120036 2 240 0.0 0.0 0.00 0.00 0.00 80 1005.2
20211017113111 2 240 0.0 1.6 0.00 0.00 0.00 82 1005.4
20211017111526 2 240 0.0 0.0 0.00 0.00 0.00 81 1005.5
20211017110035 2 240 0.0 1.6 0.00 0.00 0.00 82 1005.9
20211017104523 2 240 0.0 1.6 0.00 0.00 0.00 81 1006.1
20211017103028 2 240 0.0 0.0 0.00 0.00 0.00 80 1006.5
20211017101525 2 240 0.0 0.0 0.00 0.00 0.00 83 1006.6
20211017100011 2 240 0.0 0.0 0.00 0.00 0.00 83 1006.8
20211017094522 2 240 0.0 0.0 0.00 0.00 0.00 82 1007.0
20211017093006 2 240 0.0 0.0 0.00 0.00 0.00 83 1007.0
20211017091518 3 240 0.0 0.0 0.00 0.00 0.00 84 1007.2
20211017090003 3 240 0.0 0.0 0.00 0.00 0.00 83 1007.3
20211017084739 3 240 0.0 0.0 0.00 0.00 0.00 81 1007.6
20211017083325 3 240 0.0 3.2 0.00 0.00 0.00 81 1007.7
20211017081619 3 240 0.0 3.2 0.00 0.00 0.00 81 1007.8
20211017080143 3 240 0.0 4.8 0.00 0.00 0.00 81 1007.9
20211017074628 3 240 0.0 0.0 0.00 0.00 0.00 81 1008.0
20211017073110 3 240 0.0 0.0 0.00 0.00 0.00 82 1008.2
20211017071557 4 240 0.0 0.0 0.00 0.00 0.00 79 1008.4
20211017070119 4 240 0.0 0.0 0.00 0.00 0.00 79 1008.6
20211017064628 5 240 0.0 0.0 0.00 0.00 0.00 79 1008.6
20211017063056 5 240 0.0 0.0 0.00 0.00 0.00 79 1008.8
20211017061601 5 240 0.0 0.0 0.00 0.00 0.00 77 1008.7
20211017060047 5 240 0.0 0.0 0.00 0.00 0.00 76 1008.8
20211017054550 5 240 0.0 0.0 0.00 0.00 0.00 76 1008.9
20211017051610 6 240 0.0 0.0 0.00 0.00 0.00 73 1009.0
20211017050032 6 240 0.0 0.0 0.00 0.00 0.00 73 1008.9
20211017044623 6 240 0.0 0.0 0.00 0.00 0.00 73 1009.0
20211017043029 7 240 0.0 0.0 0.00 0.00 0.00 70 1009.0
20211017041528 7 240 0.0 1.6 0.00 0.00 0.00 70 1009.0
20211017040021 7 240 0.0 0.0 0.00 0.00 0.00 68 1009.1
20211017034512 8 240 0.0 0.0 0.00 0.00 0.00 67 1009.0
20211017033016 8 240 0.0 0.0 0.00 0.00 0.00 65 1009.0
20211017031508 9 240 0.0 0.0 0.00 0.00 0.00 64 1008.9
20211017030146 10 240 0.0 1.6 0.00 0.00 0.00 59 1008.9
20211017024700 11 240 0.0 3.2 0.00 0.00 0.00 57 1008.9
20211017023215 11 238 1.6 4.8 0.00 0.00 0.00 54 1008.7
20211017021640 11 238 0.0 3.2 0.00 0.00 0.00 57 1008.9
20211017020104 11 238 0.0 4.8 0.00 0.00 0.00 56 1008.8
20211017014723 12 238 0.0 1.6 0.00 0.00 0.00 52 1008.7
20211017013051 13 238 0.0 0.0 0.00 0.00 0.00 50 1008.5
20211017011518 15 238 0.0 0.0 0.00 0.00 0.00 46 1008.4
20211017010058 16 238 0.0 8.0 0.00 0.00 0.00 44 1008.4
20211017004637 16 222 0.0 1.6 0.00 0.00 0.00 41 1008.3
20211017003123 18 222 0.0 0.0 0.00 0.00 0.00 39 1008.4
20211017001517 19 222 0.0 0.0 0.00 0.00 0.00 33 1008.4
20211017000021 20 222 0.0 1.6 0.00 0.00 0.00 30 1008.5
20211016234517 22 222 0.0 1.6 0.00 0.00 0.00 28 1008.6
20211016233007 22 223 0.0 1.6 0.00 0.00 0.00 26 1008.8
20211016231506 23 246 0.0 9.7 0.00 0.00 0.00 24 1009.0
20211016230007 25 241 0.0 3.2 0.00 0.00 0.00 24 1009.1
20211016224601 25 189 0.0 8.0 0.00 0.00 0.00 23 1009.1
20211016223052 25 175 0.0 6.4 0.00 0.00 0.00 25 1009.4
20211016220035 25 107 0.0 1.6 0.00 0.00 0.00 25 1009.8
20211016214606 24 105 0.0 1.6 0.00 0.00 0.00 25 1010.1
20211016213020 23 105 0.0 3.2 0.00 0.00 0.00 27 1010.4
20211016211609 22 69 0.0 1.6 0.00 0.00 0.00 28 1010.7
20211016210135 22 68 0.0 0.0 0.00 0.00 0.00 30 1011.2
20211016204615 21 67 0.0 0.0 0.00 0.00 0.00 32 1011.7
20211016203101 21 67 0.0 0.0 0.00 0.00 0.00 33 1012.1
20211016201539 20 290 0.0 6.4 0.00 0.00 0.00 35 1012.5
20211016200054 18 295 0.0 4.8 0.00 0.00 0.00 37 1012.9
20211016194517 17 295 0.0 1.6 0.00 0.00 0.00 41 1013.2
20211016193011 17 290 0.0 1.6 0.00 0.00 0.00 41 1013.8
20211016191512 16 290 0.0 1.6 0.00 0.00 0.00 44 1014.2
20211016190016 16 290 0.0 4.8 0.00 0.00 0.00 42 1014.7
20211016184822 15 290 0.0 4.8 0.00 0.00 0.00 47 1015.0
20211016183113 13 290 0.0 1.6 0.00 0.00 0.00 53 1015.3
20211016181629 11 290 0.0 0.0 0.00 0.00 0.00 54 1015.6
20211016180134 10 290 0.0 4.8 0.00 0.00 0.00 57 1016.1
20211016174639 10 290 0.0 1.6 0.00 0.00 0.00 58 1016.2
20211016173134 9 290 0.0 6.4 0.00 0.00 0.00 60 1016.5
20211016171602 8 290 0.0 3.2 0.00 0.00 0.00 64 1016.7
20211016170055 7 290 0.0 3.2 0.00 0.00 0.00 66 1016.9
20211016164624 7 290 1.6 8.0 0.00 0.00 0.00 67 1017.3
20211016163123 6 290 0.0 6.4 0.00 0.00 0.00 70 1017.6
20211016161611 5 288 1.6 8.0 0.00 0.00 0.00 73 1017.6
20211016154602 3 288 0.0 4.8 0.00 0.00 0.00 83 1018.0
20211016153009 1 288 0.0 4.8 0.00 0.00 0.00 86 1018.1